timestamp,wind_dir_avg,wind_spd_max_dir,wind_spd_avg,wind_spd_gust,battery_voltage,lat,long
2018-05-19 00:00:00+00:00,296.0,298.0,7.71,8.58,,47.59359,-54.27349
2018-05-19 00:10:00+00:00,297.0,298.0,7.59,8.26,,47.59359,-54.27349
2018-05-19 00:20:00+00:00,295.0,297.0,7.19,8.03,,47.59359,-54.27349
2018-05-19 00:30:00+00:00,298.0,294.0,7.81,9.16,,47.59359,-54.27349
2018-05-19 00:40:00+00:00,301.0,300.0,6.46,7.24,,47.59359,-54.27349
2018-05-19 00:50:00+00:00,310.0,317.0,5.44,6.15,,47.59359,-54.27349
2018-05-19 01:00:00+00:00,312.0,311.0,5.05,5.43,,47.59359,-54.27349
2018-05-19 01:10:00+00:00,310.0,311.0,5.29,5.92,,47.59359,-54.27349
2018-05-19 01:20:00+00:00,317.0,320.0,6.64,7.95,,47.59359,-54.27349
2018-05-19 01:30:00+00:00,313.0,314.0,7.97,8.87,,47.59359,-54.27349
2018-05-19 01:40:00+00:00,328.0,330.0,6.54,7.77,,47.59359,-54.27349
2018-05-19 01:50:00+00:00,325.0,328.0,7.42,8.29,,47.59359,-54.27349
2018-05-19 02:00:00+00:00,328.0,331.0,7.03,7.83,,47.59359,-54.27349
2018-05-19 02:10:00+00:00,319.0,322.0,6.43,7.32,,47.59359,-54.27349
2018-05-19 02:20:00+00:00,325.0,327.0,6.53,8.18,,47.59359,-54.27349
2018-05-19 02:30:00+00:00,324.0,327.0,7.55,8.5,,47.59359,-54.27349
2018-05-19 02:40:00+00:00,338.0,341.0,8.11,9.47,,47.59359,-54.27349
2018-05-19 02:50:00+00:00,342.0,343.0,8.08,9.5,,47.59359,-54.27349
2018-05-19 03:00:00+00:00,345.0,340.0,8.7,9.74,,47.59359,-54.27349
2018-05-19 03:10:00+00:00,341.0,336.0,8.24,9.41,,47.59359,-54.27349
2018-05-19 03:20:00+00:00,331.0,335.0,8.53,10.06,,47.59359,-54.27349
2018-05-19 03:30:00+00:00,324.0,325.0,7.28,8.22,,47.59359,-54.27349
2018-05-19 03:40:00+00:00,327.0,326.0,8.85,10.09,,47.59359,-54.27349
2018-05-19 03:50:00+00:00,309.0,307.0,5.92,7.17,,47.59359,-54.27349
2018-05-19 04:00:00+00:00,308.0,312.0,7.26,8.31,,47.59359,-54.27349
2018-05-19 04:10:00+00:00,313.0,319.0,7.49,9.23,,47.59359,-54.27349
2018-05-19 04:20:00+00:00,307.0,306.0,7.31,9.65,,47.59359,-54.27349
2018-05-19 04:30:00+00:00,322.0,321.0,6.78,7.72,,47.59359,-54.27349
2018-05-19 04:40:00+00:00,321.0,324.0,7.85,9.07,,47.59359,-54.27349
2018-05-19 04:50:00+00:00,315.0,308.0,7.81,8.84,,47.59359,-54.27349
2018-05-19 05:00:00+00:00,307.0,306.0,7.24,8.12,,47.59359,-54.27349
2018-05-19 05:10:00+00:00,300.0,300.0,7.72,9.06,,47.59359,-54.27349
2018-05-19 05:20:00+00:00,303.0,298.0,8.34,9.31,,47.59359,-54.27349
2018-05-19 05:30:00+00:00,298.0,297.0,7.79,9.31,,47.59359,-54.27349
2018-05-19 05:40:00+00:00,292.0,291.0,7.24,8.54,,47.59359,-54.27349
2018-05-19 05:50:00+00:00,289.0,293.0,5.82,6.74,,47.59359,-54.27349
2018-05-19 06:00:00+00:00,289.0,292.0,7.73,8.71,,47.59359,-54.27349
2018-05-19 06:10:00+00:00,286.0,290.0,7.45,8.19,,47.59359,-54.27349
2018-05-19 06:20:00+00:00,293.0,298.0,7.21,8.14,,47.59359,-54.27349
2018-05-19 06:30:00+00:00,280.0,285.0,7.08,8.05,,47.59359,-54.27349
2018-05-19 06:40:00+00:00,290.0,290.0,7.0,8.28,,47.59359,-54.27349
2018-05-19 06:50:00+00:00,293.0,283.0,6.84,8.13,,47.59359,-54.27349
2018-05-19 07:00:00+00:00,284.0,290.0,6.22,7.9,,47.59359,-54.27349
2018-05-19 07:10:00+00:00,291.0,286.0,7.11,8.67,,47.59359,-54.27349
2018-05-19 07:20:00+00:00,274.0,268.0,5.85,6.98,,47.59359,-54.27349
2018-05-19 07:30:00+00:00,289.0,289.0,5.14,6.07,,47.59359,-54.27349
2018-05-19 07:40:00+00:00,279.0,284.0,5.99,7.39,,47.59359,-54.27349
2018-05-19 07:50:00+00:00,287.0,289.0,6.07,7.03,,47.59359,-54.27349
2018-05-19 08:00:00+00:00,284.0,281.0,6.56,7.69,,47.59359,-54.27349
2018-05-19 08:10:00+00:00,251.0,246.0,6.85,7.39,,47.59359,-54.27349
2018-05-19 08:20:00+00:00,244.0,241.0,5.97,7.25,,47.59359,-54.27349
2018-05-19 08:30:00+00:00,256.0,262.0,6.47,7.41,,47.59359,-54.27349
2018-05-19 08:40:00+00:00,251.0,249.0,7.39,8.3,,47.59359,-54.27349
2018-05-19 08:50:00+00:00,262.0,264.0,6.89,7.68,,47.59359,-54.27349
2018-05-19 09:00:00+00:00,266.0,267.0,7.56,8.67,,47.59359,-54.27349
2018-05-19 09:10:00+00:00,259.0,265.0,7.92,9.13,,47.59359,-54.27349
2018-05-19 09:20:00+00:00,266.0,266.0,8.2,9.87,,47.59359,-54.27349
2018-05-19 09:30:00+00:00,264.0,263.0,9.32,10.77,,47.59359,-54.27349
2018-05-19 09:40:00+00:00,271.0,273.0,8.67,9.87,,47.59359,-54.27349
2018-05-19 09:50:00+00:00,273.0,266.0,8.47,9.41,,47.59359,-54.27349
2018-05-19 10:00:00+00:00,271.0,275.0,7.22,8.26,,47.59359,-54.27349
2018-05-19 10:10:00+00:00,269.0,275.0,7.22,8.49,,47.59359,-54.27349
2018-05-19 10:20:00+00:00,280.0,284.0,8.32,9.94,,47.59359,-54.27349
2018-05-19 10:30:00+00:00,273.0,275.0,8.29,9.4,,47.59359,-54.27349
2018-05-19 10:40:00+00:00,279.0,281.0,9.37,10.44,,47.59359,-54.27349
2018-05-19 10:50:00+00:00,282.0,283.0,8.65,9.86,,47.59359,-54.27349
2018-05-19 11:00:00+00:00,285.0,286.0,7.96,9.43,,47.59359,-54.27349
2018-05-19 11:10:00+00:00,293.0,301.0,7.54,8.56,,47.59359,-54.27349
2018-05-19 11:20:00+00:00,289.0,291.0,7.95,9.48,,47.59359,-54.27349
2018-05-19 11:30:00+00:00,284.0,286.0,9.26,10.6,,47.59359,-54.27349
2018-05-19 11:40:00+00:00,279.0,283.0,8.56,10.15,,47.59359,-54.27349
2018-05-19 11:50:00+00:00,287.0,283.0,10.07,11.3,,47.59359,-54.27349
2018-05-19 12:00:00+00:00,290.0,290.0,8.09,9.53,,47.59359,-54.27349
2018-05-19 12:10:00+00:00,287.0,292.0,10.54,12.16,,47.59359,-54.27349
2018-05-19 12:20:00+00:00,289.0,285.0,7.41,8.37,,47.59359,-54.27349
2018-05-19 12:30:00+00:00,294.0,294.0,8.87,10.19,,47.59359,-54.27349
2018-05-19 12:40:00+00:00,278.0,276.0,7.37,8.23,,47.59359,-54.27349
2018-05-19 12:50:00+00:00,287.0,284.0,7.13,7.93,,47.59359,-54.27349
2018-05-19 13:00:00+00:00,282.0,279.0,7.85,8.95,,47.59359,-54.27349
2018-05-19 13:10:00+00:00,291.0,292.0,7.78,9.17,,47.59359,-54.27349
2018-05-19 13:20:00+00:00,290.0,296.0,6.77,8.93,,47.59359,-54.27349
2018-05-19 13:30:00+00:00,269.0,268.0,4.97,5.46,,47.59359,-54.27349
2018-05-19 13:40:00+00:00,281.0,276.0,5.97,6.75,,47.59359,-54.27349
2018-05-19 13:50:00+00:00,279.0,286.0,6.53,7.41,,47.59359,-54.27349
2018-05-19 14:00:00+00:00,269.0,267.0,5.8,6.91,,47.59359,-54.27349
2018-05-19 14:10:00+00:00,268.0,271.0,6.09,7.43,,47.59359,-54.27349
2018-05-19 14:20:00+00:00,270.0,271.0,6.64,7.32,,47.59359,-54.27349
2018-05-19 14:30:00+00:00,284.0,283.0,7.47,9.25,,47.59359,-54.27349
2018-05-19 14:40:00+00:00,297.0,299.0,6.86,7.46,,47.59359,-54.27349
2018-05-19 14:50:00+00:00,304.0,304.0,10.29,10.99,,47.59359,-54.27349
2018-05-19 15:00:00+00:00,281.0,286.0,10.73,12.8,,47.59359,-54.27349
2018-05-19 15:10:00+00:00,298.0,298.0,9.44,11.44,,47.59359,-54.27349
2018-05-19 15:20:00+00:00,277.0,273.0,10.77,11.8,,47.59359,-54.27349
2018-05-19 15:30:00+00:00,293.0,292.0,9.21,11.65,,47.59359,-54.27349
2018-05-19 15:40:00+00:00,279.0,277.0,9.54,11.86,,47.59359,-54.27349
2018-05-19 15:50:00+00:00,273.0,274.0,10.66,12.62,,47.59359,-54.27349
2018-05-19 16:00:00+00:00,285.0,293.0,11.47,13.53,,47.59359,-54.27349
2018-05-19 16:10:00+00:00,284.0,278.0,11.77,14.32,,47.59359,-54.27349
2018-05-19 16:20:00+00:00,277.0,273.0,13.76,16.69,,47.59359,-54.27349
2018-05-19 16:30:00+00:00,281.0,289.0,12.43,14.06,,47.59359,-54.27349
2018-05-19 16:40:00+00:00,276.0,277.0,12.61,14.41,,47.59359,-54.27349
2018-05-19 16:50:00+00:00,279.0,281.0,9.69,12.22,,47.59359,-54.27349
2018-05-19 17:00:00+00:00,266.0,271.0,12.12,13.62,,47.59359,-54.27349
2018-05-19 17:10:00+00:00,269.0,272.0,12.27,14.1,,47.59359,-54.27349
2018-05-19 17:20:00+00:00,271.0,274.0,11.88,13.56,,47.59359,-54.27349
2018-05-19 17:30:00+00:00,275.0,274.0,11.79,13.62,,47.59359,-54.27349
2018-05-19 17:40:00+00:00,277.0,273.0,12.59,13.81,,47.59359,-54.27349
2018-05-19 17:50:00+00:00,271.0,277.0,14.91,18.28,,47.59359,-54.27349
2018-05-19 18:00:00+00:00,274.0,277.0,12.79,15.57,,47.59359,-54.27349
2018-05-19 18:10:00+00:00,274.0,277.0,13.35,15.32,,47.59359,-54.27349
2018-05-19 18:20:00+00:00,271.0,275.0,13.44,14.86,,47.59359,-54.27349
2018-05-19 18:30:00+00:00,270.0,274.0,11.79,14.01,,47.59359,-54.27349
2018-05-19 18:40:00+00:00,275.0,279.0,12.06,13.69,,47.59359,-54.27349
2018-05-19 18:50:00+00:00,274.0,278.0,10.53,13.72,,47.59359,-54.27349
2018-05-19 19:00:00+00:00,276.0,280.0,12.71,13.87,,47.59359,-54.27349
2018-05-19 19:10:00+00:00,277.0,286.0,10.51,13.48,,47.59359,-54.27349
2018-05-19 19:20:00+00:00,279.0,275.0,10.17,11.82,,47.59359,-54.27349
2018-05-19 19:30:00+00:00,280.0,288.0,9.26,11.85,,47.59359,-54.27349
2018-05-19 19:40:00+00:00,278.0,282.0,11.45,12.96,,47.59359,-54.27349
2018-05-19 19:50:00+00:00,281.0,284.0,9.88,11.91,,47.59359,-54.27349
2018-05-19 20:00:00+00:00,282.0,286.0,11.9,14.6,,47.59359,-54.27349
2018-05-19 20:10:00+00:00,285.0,288.0,12.19,13.86,,47.59359,-54.27349
2018-05-19 20:20:00+00:00,277.0,277.0,11.12,12.69,,47.59359,-54.27349
2018-05-19 20:30:00+00:00,279.0,286.0,10.47,12.87,,47.59359,-54.27349
2018-05-19 20:40:00+00:00,286.0,287.0,11.89,13.43,,47.59359,-54.27349
2018-05-19 20:50:00+00:00,280.0,282.0,9.0,10.16,,47.59359,-54.27349
2018-05-19 21:00:00+00:00,280.0,282.0,12.74,14.34,,47.59359,-54.27349
2018-05-19 21:10:00+00:00,283.0,279.0,10.4,11.67,,47.59359,-54.27349
2018-05-19 21:20:00+00:00,283.0,286.0,10.26,11.9,,47.59359,-54.27349
2018-05-19 21:30:00+00:00,276.0,276.0,11.12,12.16,,47.59359,-54.27349
2018-05-19 21:40:00+00:00,280.0,280.0,9.79,11.28,,47.59359,-54.27349
2018-05-19 21:50:00+00:00,277.0,279.0,8.79,9.52,,47.59359,-54.27349
2018-05-19 22:00:00+00:00,278.0,277.0,8.5,10.05,,47.59359,-54.27349
2018-05-19 22:10:00+00:00,276.0,274.0,9.28,9.96,,47.59359,-54.27349
2018-05-19 22:20:00+00:00,282.0,287.0,10.21,11.18,,47.59359,-54.27349
2018-05-19 22:30:00+00:00,275.0,279.0,8.67,9.9,,47.59359,-54.27349
2018-05-19 22:40:00+00:00,267.0,267.0,7.27,8.25,,47.59359,-54.27349
2018-05-19 22:50:00+00:00,266.0,266.0,7.71,8.29,,47.59359,-54.27349
2018-05-19 23:00:00+00:00,254.0,253.0,7.61,8.15,,47.59359,-54.27349
2018-05-19 23:10:00+00:00,262.0,266.0,7.4,8.13,,47.59359,-54.27349
2018-05-19 23:20:00+00:00,251.0,250.0,6.73,7.29,,47.59359,-54.27349
2018-05-19 23:30:00+00:00,253.0,252.0,7.22,7.85,,47.59359,-54.27349
2018-05-19 23:40:00+00:00,256.0,253.0,7.45,8.24,,47.59359,-54.27349
2018-05-19 23:50:00+00:00,260.0,267.0,6.8,7.7,,47.59359,-54.27349
